Miscellaneous Local Product
Issued by NWS Hastings, NE

Home | Current Version | Previous Version | Graphics & Text | Print | Product List | Glossary On
Versions: 1 2 3 4 5 6 7 8 9 10 11 12 13 14 15 16 17 18 19 20 21 22 23 24 25 26 27 28 29 30 31 32 33 34 35 36 37 38 39 40 41 42 43 44 45 46 47 48 49 50
000
AXUS43 KGID 272002
MISGRI

GID CWA HOURLY WEATHER ROUNDUP
NATIONAL WEATHER SERVICE HASTINGS NE
200 PM CST FRI FEB 27 2015

NOTE: "FAIR" INDICATES FEW OR NO CLOUDS BELOW 12,000 FEET WITH NO
SIGNIFICANT WEATHER AND/OR OBSTRUCTIONS TO VISIBILITY.

...SOUTH CENTRAL NEBRASKA...

CITY           SKY/WX    TMP DP  RH WIND       PRES   REMARKS
GRAND ISLAND   SUNNY     20  -2  38 VRB3      30.44F
HASTINGS       SUNNY     20  -4  34 VRB6      30.41F WCI  12
KEARNEY        SUNNY     19  -4  35 S7G16     30.39F WCI  10
ORD            SUNNY     20  -6  31 S9        30.37F WCI   9
YORK           SUNNY     19   0  42 SE8       30.47F WCI   9
AURORA         SUNNY     19  -4  36 S8        30.45F WCI   9
LEXINGTON      SUNNY     21  -2  36 S8        30.36F WCI  12
HOLDREGE       MOSUNNY   19  -5  33 S9        30.38F WCI   8
HEBRON         FAIR      19  -3  37 CALM      30.49F

...NEBRASKA PANHANDLE...

CITY           SKY/WX    TMP DP  RH WIND       PRES   REMARKS
CHADRON        CLOUDY    23  10  57 S24G33    30.09F WCI   7
ALLIANCE       CLOUDY    20   9  62 S24G32    30.07F WCI   3
SCOTTSBLUFF    CLOUDY    22   8  55 S22       30.05F WCI   6
SIDNEY         CLOUDY    18   8  65 S23G30    30.07F WCI   0

...WESTERN AND NORTH CENTRAL NEBRASKA...

CITY           SKY/WX    TMP DP  RH WIND       PRES   REMARKS
VALENTINE      SUNNY     24  -1  33 S15G23    30.24F WCI  11
AINSWORTH      SUNNY     22  -3  33 S9        30.27F WCI  12
ONEILL         SUNNY     22  -2  35 SW10      30.38F WCI  11
BROKEN BOW     SUNNY     22  -1  36 S9G22     30.32F WCI  12
IMPERIAL         N/A     21   8  57 S18G26    30.21F WCI   6
NORTH PLATTE   PTSUNNY   24   1  36 S16       30.26F WCI  11
MCCOOK         CLOUDY    23   4  44 S14       30.32F WCI  11

...EASTERN NEBRASKA...

CITY           SKY/WX    TMP DP  RH WIND       PRES   REMARKS
NORFOLK        SUNNY     19   0  43 S6        30.45F WCI  11
TEKAMAH        MOSUNNY   15   4  61 CALM      30.56F
COLUMBUS       SUNNY     18  -4  38 S6        30.50F WCI   9
ALBION         SUNNY     20  -3  35 SE8       30.44F WCI  10
OMAHA EPPLEY   MOSUNNY   17   0  47 E3        30.56F
OFFUTT AFB     SUNNY     17   1  49 VRB5      30.55F WCI  10
MILLARD        SUNNY     16  -1  45 CALM      30.56F
LINCOLN        SUNNY     18  -3  39 SE7       30.54F WCI   9
NEBRASKA CITY  SUNNY     19  -3  38 CALM      30.53F
BEATRICE       MOSUNNY   19  -1  41 E3        30.52F
FALLS CITY     SUNNY     19  -1  41 S8        30.56F WCI   9

...NORTHERN KANSAS...

CITY           SKY/WX    TMP DP  RH WIND       PRES   REMARKS
GOODLAND       MIX PCPN  18   9  68 S23G31    30.20F WCI   0
HILL CITY      CLOUDY    20   2  45 SE13      30.39F WCI   7
NORTON         CLOUDY    21  -6  30 SE12      30.35F WCI   9
PHILLIPSBURG   MOSUNNY   23   0  36 SE7       30.42F WCI  15
HAYS           CLOUDY    18  -2  41 SE7       30.43F WCI   8
RUSSELL        CLOUDY    18   1  47 NE3       30.44F
CONCORDIA      PTSUNNY   18   1  47 VRB6      30.49F WCI  10
SALINA         CLOUDY    18   0  45 CALM      30.52F
TOPEKA         CLOUDY    15  -1  49 VRB3      30.58F



USA.gov is the U.S. government's official web portal to all federal, state and local government web resources and services.